Location: Kepiralan?
(36.8833°N, 30.3833°E)
Time: 07:42:58
(UTC+00:00)

Daily predictions for brighter satellites

Satellite Brightness Start Highest point End
(mag) Time Altitude Azimuth Time Altitude Azimuth Time Altitude Azimuth
Centaur D AC-29 4.0 16:55:06 10° WSW 17:00:33 39° S 17:27:09 10° ESE
ATLAS 3B R/B 3.8 17:31:42 10° SSE 17:36:42 22° ESE 17:41:58 10° ENE
Cosmos 2181 Rocket 4.1 17:30:47 10° N 17:37:02 87° E 17:43:19 10° S
Okean 2 Rocket 4.2 17:37:58 10° NNW 17:42:17 48° W 17:46:32 10° SSW
Cosmos 2150 Rocket 4.5 17:37:23 10° S 17:42:26 42° ESE 17:47:33 10° NNE
IKONOS-2 4.4 17:38:22 10° NNE 17:42:34 73° ESE 17:46:44 10° S
Cosmos 44 4.1 17:38:12 10° SW 17:43:28 64° WNW 17:48:33 10° NNE
CSL-04 Rocket 3.8 17:41:46 10° SSE 17:47:10 62° ENE 17:52:38 10° N
Okean O Rocket 2.0 17:44:01 10° SE 17:48:05 44° ENE 17:52:12 10° N
Cosmos 1943 Rocket 3.5 17:47:14 10° SE 17:51:03 19° E 17:54:51 10° ENE
Cosmos 2278 Rocket 2.9 17:46:32 10° SSE 17:51:27 32° ESE 17:56:23 10° NE
Resurs 01 Rocket 1.6 17:51:43 10° SSE 17:56:06 88° ENE 18:00:30 10° NNW
Cosmos 1869 4.5 17:54:31 10° NNE 17:57:43 24° ENE 18:00:28 12° SE
Cosmos 2184 Rocket 4.2 17:51:26 10° S 17:57:47 81° W 18:04:06 10° N
Cosmos 1025 Rocket 4.0 17:55:43 10° SSW 17:59:49 50° W 18:03:58 10° N
Terra 3.6 18:03:12 10° ESE 18:05:55 16° ENE 18:08:43 10° NNE
CARTOSAT-1 3.8 18:04:06 10° S 18:08:20 69° W 18:12:35 10° NNW
Feng Yun 1-1 Rocket 4.3 18:03:06 10° S 18:08:33 78° WSW 18:13:56 10° NNW
CSL-04 Debris 4.4 18:06:18 10° S 18:11:39 74° WSW 18:17:02 10° NNW
NOSS 3-1 (C) 3.1 18:09:47 10° SW 18:14:26 78° WNW 18:19:53 10° NNE
Cosmos 1610 Rocket 4.5 18:08:15 10° S 18:14:29 87° E 18:20:41 10° N
SPOT 5 3.6 18:11:12 14° SE 18:15:10 41° ENE 18:20:03 10° N
SL-8 R/B 3.6 18:17:25 10° SW 18:22:08 67° SE 18:26:54 10° ENE
Cosmos 2341 Rocket 4.3 18:16:33 10° SSE 18:22:32 48° E 18:28:36 10° NNE
Cosmos 2228 4.0 18:20:11 10° NNE 18:23:47 28° ENE 18:25:32 21° ESE
USA 186 4.1 18:21:24 10° SSW 18:23:48 21° W 18:26:10 10° NW
USA 276 3.9 18:22:30 10° W 18:24:45 20° SW 18:26:26 13° S
USA 290 2.5 18:23:04 15° S 18:25:21 41° ESE 18:28:21 10° NNE
CZ-4C R/B 3.3 18:23:50 10° NNE 18:27:08 41° E 18:28:57 22° SSE
Okean-O 2.6 18:24:42 16° SSE 18:28:07 68° ENE 18:32:30 10° N
PSLV R/B 3.9 18:26:55 12° S 18:30:08 64° W 18:33:45 10° NNW
Cosmos 1455 Rocket 3.7 18:26:15 10° NNW 18:30:30 54° W 18:34:42 10° S
Cosmos 1975 Rocket 4.0 18:27:17 10° SSW 18:31:36 49° W 18:35:56 10° N
Cosmos 1437 Rocket 2.4 18:33:26 13° S 18:36:38 78° E 18:40:17 10° NNE
Meteor 2-1 Rocket 4.2 18:33:42 10° N 18:39:15 81° W 18:44:08 13° S
IRS-1A Rocket 4.5 18:39:12 22° SE 18:42:49 58° ENE 18:48:30 10° N
ISS -1.2 18:43:31 10° NNW 18:45:29 15° NNE 18:47:18 11° ENE
OAO 3 Rocket 3.1 18:41:21 10° WSW 18:45:54 62° S 18:48:20 26° E
MetOp-B 4.1 18:44:26 21° SSE 18:48:04 81° ENE 18:53:27 10° N
H-2A R/B 1.6 18:48:31 10° WSW 18:52:27 37° S 18:52:39 36° S
Cosmos 2366 rocket 3.9 18:50:03 15° S 18:55:17 73° E 19:01:25 10° N
NOSS 3-1 (A) 2.9 18:52:22 10° SW 18:57:04 81° WNW 19:02:33 10° NNE
CZ-4C R/B 4.4 18:53:32 10° N 18:59:26 25° NE 19:04:50 14° E
Orbus 7S? 3.8 18:57:16 10° WNW 18:59:46 35° SW 19:00:16 32° SSW
SL-8 Rocket 4.0 18:53:45 10° S 19:00:01 88° W 19:06:23 10° N
Cosmos 1606 3.7 18:56:54 10° NNW 19:00:12 39° W 19:02:11 20° SSW
DELTA 2 R/B (1) 4.2 18:57:26 10° SSW 19:02:11 33° SSE 19:02:11 33° SSE
Cosmos 1959 Rocket 4.4 18:57:57 17° S 19:02:57 77° E 19:09:15 10° N
Cosmos 1536 Rocket 3.4 19:00:49 27° S 19:03:09 89° E 19:07:28 10° N
Cosmos 1833 Rocket 3.1 18:58:16 10° NNW 19:03:48 59° WSW 19:07:11 24° S
ULPM Upper Stage 3.6 19:07:26 10° NNW 19:11:29 37° NE 19:12:21 33° ENE
ERS-1 Rocket 2.9 19:09:42 36° SSE 19:11:47 89° ENE 19:16:49 10° NNW
Cosmos 614 Rocket 4.2 19:13:44 10° NNW 19:18:43 63° WSW 19:20:42 35° S
Gblst 52 Del rocket 4.1 19:13:16 10° SW 19:19:22 86° SE 19:24:57 10° NE
Okean O Rocket 4.2 19:22:21 10° WSW 19:24:32 14° W 19:26:46 10° WNW
ATLAS 3B R/B 3.1 19:19:40 10° SW 19:26:38 69° NW 19:34:11 10° NNE
USA 229 DEB 3.5 19:25:44 44° SSE 19:26:57 50° ESE 19:33:07 10° NE
USA 229 3.5 19:25:56 44° SSE 19:27:03 49° ESE 19:33:12 10° NE
Cosmos 2084 Rocket 3.1 19:25:52 10° NW 19:29:42 84° WNW 19:29:42 84° WNW
Cosmos 2369 Rocket 3.7 19:33:26 20° ENE 19:33:26 20° ENE 19:36:02 10° NE
Cosmos 1943 Rocket 2.9 19:28:48 10° SW 19:34:18 52° WNW 19:39:47 10° NNE
Cosmos 2082 Rocket 2.2 19:29:15 10° NNW 19:34:50 66° ENE 19:35:56 54° ESE
Cosmos 2278 Rocket 3.9 19:30:24 10° WSW 19:35:25 32° WNW 19:40:28 10° N
Spot 2 Rocket 3.5 19:34:20 49° S 19:35:40 75° WSW 19:40:46 10° NNW
SL-08 R/B 4.5 19:37:58 51° SE 19:39:09 60° E 19:45:09 10° NNE
OAO 1 4.4 19:36:04 10° W 19:41:31 64° S 19:41:51 63° S
Terra 2.4 19:41:54 40° SW 19:43:03 49° W 19:47:38 10° NNW
USA 215 3.4 19:41:25 39° ESE 19:43:54 64° NE 19:50:22 10° NW
Cosmos 1934 Rocket 4.5 19:44:13 40° E 19:44:27 40° E 19:50:09 10° NNE
SPOT 3 Rocket 3.7 19:47:48 55° SSW 19:48:49 69° WSW 19:54:02 10° NNW
USA 305 4.1 19:47:19 10° NNW 19:49:32 28° N 19:49:32 28° N
Milstar 3 3.6 19:48:57 10° SW 19:56:04 46° SSE 20:07:47 10° E
Meteor 2-13 Rocket 4.5 19:49:57 10° N 19:56:06 75° W 19:57:40 52° SSW
ARIANE 5 R/B 4.3 20:02:02 23° NE 20:02:02 23° NE 20:04:47 10° NNE
Cosmos 1892 Rocket 3.8 20:02:25 67° NW 20:02:25 67° NW 20:06:27 10° N
Ariane Rocket 3.7 20:02:58 40° SW 20:03:47 44° W 20:08:36 10° NNW
Lacrosse 5 rocket 2.8 20:11:40 31° NNW 20:11:40 31° NNW 20:14:23 10° NNE
Cosmos 1812 4.4 20:08:16 10° N 20:10:11 30° NNW 20:10:11 30° NNW
Alouette 2 Rocket 4.0 20:15:26 71° N 20:15:26 71° N 20:20:46 10° N
Cosmos 1932 4.3 20:09:10 10° NNW 20:15:21 74° WSW 20:15:50 70° SSW
Cosmos 1023 Rocket 4.5 20:11:57 10° NNW 20:16:39 76° NNW 20:16:39 76° NNW
Cosmos 2058 4.1 20:19:35 40° NNW 20:19:35 40° NNW 20:22:23 10° N
Landsat 5 4.5 20:15:14 10° N 20:19:08 45° WNW 20:19:08 45° WNW
Cosmos 1656 Rocket 3.6 20:20:31 82° N 20:20:31 82° N 20:25:52 10° NNE
Cosmos 1726 Rocket 4.5 20:16:18 10° NNW 20:19:42 44° WNW 20:19:42 44° WNW
ISS -0.9 20:19:17 10° NW 20:20:10 17° NW 20:20:10 17° NW
Cosmos 1727 Rocket 4.5 20:16:55 10° NNW 20:22:59 52° W 20:24:17 45° SW
COSMOS 2406 3.5 20:22:56 10° NNW 20:28:24 55° WSW 20:28:24 55° WSW
Cosmos 1535 Rocket 4.5 20:32:47 68° ENE 20:32:47 68° ENE 20:38:33 10° NNE
Cosmos 1605 Rocket 4.1 20:38:00 60° ENE 20:38:00 60° ENE 20:43:28 10° NNE
Cosmos 407 Rocket 3.9 20:39:18 10° NNW 20:43:32 60° NNW 20:43:32 60° NNW
COSMOS 2455 4.1 20:40:08 10° N 20:45:19 29° NE 20:45:56 28° ENE
CZ-4C R/B 3.0 20:40:58 10° NNW 20:48:40 86° WSW 20:49:53 69° SSE
Cosmos 1140 Rocket 4.4 20:43:52 10° NNW 20:47:52 42° WNW 20:47:52 42° WNW
Meteor 2-3 Rocket 4.3 21:14:42 54° NW 21:14:42 54° NW 21:19:34 10° N
Gbstr 26 Del rocket 4.3 21:09:37 10° NW 21:13:13 48° NW 21:13:13 48° NW
Cosmos 2369 Rocket 3.1 21:15:09 40° WNW 21:15:20 41° WNW 21:20:37 10° N
Lacrosse 5 4.2 21:12:53 10° N 21:16:10 17° NNE 21:18:06 14° NE
Cosmos 2082 Rocket 4.4 21:15:23 10° WNW 21:17:46 14° W 21:17:46 14° W
USA 215 4.5 21:28:46 28° W 21:28:46 28° W 21:32:50 10° WNW
Lacrosse 4 Rocket 3.9 21:28:41 19° NNW 21:28:41 19° NNW 21:30:42 10° N
SeaSat 1 3.9 21:31:24 31° NE 21:31:24 31° NE 21:34:53 10° N
ATLAS CENTAUR R/B 4.4 21:38:21 24° ENE 21:38:21 24° ENE 21:41:42 10° NE
Cosmos 1459 Rocket 4.3 22:06:07 64° NNW 22:06:07 64° NNW 22:11:30 10° N
Cosmos 2016 Rocket 4.3 22:10:22 61° NE 22:10:22 61° NE 22:15:39 10° N
CENTAUR R/B 3.2 22:06:28 10° NNW 22:15:10 88° WSW 22:16:06 76° SSE
H-2A R/B 4.3 22:19:00 10° N 22:20:29 22° N 22:20:29 22° N
Cosmos 1725 Rocket 4.2 22:25:30 66° N 22:25:30 66° N 22:30:52 10° N
USA 281 3.2 22:31:51 76° NNW 22:31:51 76° NNW 22:37:52 10° NNW
COSMOS 2455 4.2 22:25:42 10° NW 22:29:02 30° WNW 22:29:02 30° WNW
Milstar 3 4.2 22:30:39 10° W 22:40:40 56° S 23:00:20 10° ESE
SJ 16-02 3.4 22:53:01 10° NNW 22:54:45 24° NNW 22:54:45 24° NNW
Lacrosse 5 3.5 22:54:47 10° NW 22:57:14 29° NW 22:57:14 29° NW
Cosmos 1697 Rocket 3.4 23:05:20 45° ENE 23:05:20 45° ENE 23:09:41 10° NNE
ASTEX 1 4.5 23:09:07 41° NNW 23:09:07 41° NNW 23:12:22 10° N
Cosmos 1867 4.4 23:02:31 10° NNW 23:07:46 45° NE 23:08:05 44° ENE
NOSS 3-2 (A) 4.2 23:02:52 10° NW 23:10:30 62° WSW 23:10:30 62° WSW
Cosmos 2227 Rocket 3.9 23:06:46 10° N 23:11:36 28° ENE 23:14:06 21° E
Cosmos 1656 4.5 23:16:15 42° NW 23:16:15 42° NW 23:20:47 10° N
Cosmos 2344 4.1 23:22:54 40° W 23:24:41 47° NW 23:31:40 10° NNE
Cosmos 2297 Rocket 2.3 23:20:55 10° NNW 23:26:06 70° NNE 23:26:06 70° NNE
Meteor 1-5 Rocket 4.5 23:29:54 58° NNW 23:29:54 58° NNW 23:34:17 10° N
IDEFIX/ARIANE 42P 3.0 23:24:17 10° NNE 23:28:43 55° ENE 23:28:43 55° ENE
ATLAS CENTAUR R/B 4.0 23:28:31 30° WNW 23:30:13 36° NNW 23:37:53 10° NE
Cosmos 1513 Rocket 4.4 23:30:27 86° ESE 23:30:32 87° E 23:36:52 10° N
CZ-2C R/B 3.6 23:29:54 40° ESE 23:30:59 45° ENE 23:36:18 10° N
ADEOS II 3.5 23:28:26 10° NE 23:32:52 27° E 23:33:13 27° ESE
CZ-2D R/B 2.9 23:28:22 10° NNE 23:33:08 42° E 23:33:08 42° E
NOSS 3-4 (C) 3.3 23:38:13 66° NW 23:38:13 66° NW 23:43:43 10° NNE
NOSS 3-4 (A) 3.3 23:38:45 64° NW 23:38:45 64° NW 23:44:09 10° NNE
Atlas Centaur 2 3.5 23:40:52 42° SE 23:40:52 42° SE 23:47:35 10° E
Cosmos 1980 Rocket 2.7 23:40:15 48° ESE 23:40:15 48° ESE 23:45:42 10° NNE
USA 234 3.1 23:38:06 10° NE 23:44:39 71° SE 23:45:14 67° SSE
MSX 3.7 23:41:26 10° NNE 23:47:14 78° ESE 23:47:26 77° SE
Cosmos 371 Rocket 3.8 23:43:10 10° N 23:47:49 57° ENE 23:47:49 57° ENE
Resurs 1-4 Rocket 2.3 23:42:45 10° NNE 23:48:01 64° E 23:48:01 64° E
NOSS 3-2 (C) 4.1 23:40:37 10° NW 23:48:30 70° WSW 23:50:51 51° S
Meteor 2-4 Rocket 3.9 23:46:14 10° NNW 23:50:57 59° NW 23:50:57 59° NW
